Location: ????????
(56.1167°N, 38.6333°E)
Time: 21:47:58
(UTC+00:00)

Cosmos 1975 Rocket - Pass Details

Date: 18 November 2025
Orbit: 597 x 626 km, 82.5° (Epoch: 06 December)

Event Time Altitude Azimuth Distance (km) Brightness Sun altitude
Rises 14:24:55 0° 347° (NNW) 2,871 6.4 -9.8°
Reaches altitude 10° 14:27:08 10° 348° (NNW) 1,967 5.6 -10.1°
Maximum altitude 14:31:30 86° 77° (ENE) 619 3.0 -10.7°
Drops below altitude 10° 14:35:52 10° 168° (SSE) 1,969 5.7 -11.3°
Sets 14:38:05 0° 168° (SSE) 2,874 6.6 -11.6°
